Ankara, Turkey

6:15 PM +03 on May 25, 2017 (GMT +0300)
Esenboga

Weather History for LTAC - September, 2013

Change the Weather History Date:

Thursday, September 26, 2013

  Actual Average Record
Temperature  
Mean Temperature 58 °F -  
Max Temperature 76 °F 65 °F 85 °F (2012)
Min Temperature 39 °F 39 °F 35 °F (1997)
Degree Days  
Heating Degree Days 8    
Growing Degree Days 8 (Base 50)    
Moisture  
Dew Point 36 °F    
Average Humidity 47    
Maximum Humidity 81    
Minimum Humidity 14    
Precipitation  
Precipitation 0.00 in - - ()
Sea Level Pressure  
Sea Level Pressure 30.12 in    
Wind  
Wind Speed 3 mph ()    
Max Wind Speed 12 mph    
Max Gust Speed -    
Visibility 8.5 miles    
Events      
Averages and records for this station are not official NWS values.
T = Trace of Precipitation, MM = Missing Value Source: Averaged Metar Reports

Daily Weather History Graph

Daily Weather History Graph

Search for Another Location

Airport or City:

Trip Planner

Search our weather history database for the weather conditions in past years. The results will help you decide how hot, cold, wet, or windy it might be!

Date:

Astronomy

Sep. 26, 2013 Rise Set
Actual Time 6:39 AM EEST 6:38 PM EEST
Civil Twilight 6:12 AM EEST 7:05 PM EEST
Nautical Twilight 5:40 AM EEST 7:37 PM EEST
Astronomical Twilight 5:08 AM EEST 8:09 PM EEST
Moon 11:18 PM EEST (9/26) 1:16 PM EEST (9/26)
Length of Visible Light 12h 53m
Length of Day
11h 59m
Waning Gibbous, 57% of the Moon is Illuminated
Sep 26
Waning Gibbous
Sep 27
Last Quarter
Oct 5
New
Oct 12
First Quarter
Oct 19
Full

Hourly Weather History & Observations

Time (EEST) Temp. Dew Point Humidity Pressure Visibility Wind Dir Wind Speed Gust Speed Precip Events Conditions
12:20 AM 51.8 °F 37.4 °F 58% 30.18 in - Variable 1.2 mph - N/A   Clear
12:50 AM 48.2 °F 37.4 °F 66% 30.18 in - Variable 1.2 mph - N/A   Clear
1:20 AM 50.0 °F 39.2 °F 66% 30.18 in - Variable 2.3 mph - N/A   Clear
1:50 AM 48.2 °F 39.2 °F 71% 30.18 in - ENE 5.8 mph - N/A   Clear
2:20 AM 48.2 °F 39.2 °F 71% 30.15 in - Variable 2.3 mph - N/A   Clear
2:50 AM 42.8 °F 37.4 °F 81% 30.18 in - Variable 1.2 mph - N/A   Clear
3:00 AM 43 °F 37 °F 72% 30.14 in 12 mi WNW 1.2 mph - -  
3:20 AM 44.6 °F 37.4 °F 76% 30.18 in - Variable 1.2 mph - N/A   Clear
3:50 AM 44.6 °F 35.6 °F 71% 30.18 in - Variable 1.2 mph - N/A   Clear
4:20 AM 41.0 °F 35.6 °F 81% 30.18 in - Variable 1.2 mph - N/A   Clear
4:50 AM 42.8 °F 35.6 °F 76% 30.18 in - North 2.3 mph - N/A   Clear
5:20 AM 42.8 °F 35.6 °F 76% 30.18 in - Variable 2.3 mph - N/A   Clear
5:50 AM 41.0 °F 33.8 °F 76% 30.18 in - Variable 2.3 mph - N/A   Clear
6:20 AM 39.2 °F 33.8 °F 81% 30.18 in - Variable 1.2 mph - N/A   Clear
6:50 AM 41.0 °F 35.6 °F 81% 30.18 in - Variable 1.2 mph - N/A   Clear
7:20 AM 41.0 °F 35.6 °F 81% 30.21 in - Variable 1.2 mph - N/A   Clear
7:50 AM 42.8 °F 35.6 °F 76% 30.21 in - Variable 2.3 mph - N/A   Clear
8:20 AM 48.2 °F 39.2 °F 71% 30.21 in - Variable 1.2 mph - N/A   Clear
8:50 AM 51.8 °F 39.2 °F 62% 30.21 in - SE 3.5 mph - N/A   Clear
9:00 AM 51 °F 38 °F 49% 30.17 in 12 mi SE 3.5 mph - -  
9:20 AM 55.4 °F 41.0 °F 58% 30.21 in - Variable 1.2 mph - N/A   Clear
9:50 AM 59.0 °F 41.0 °F 51% 30.21 in - Variable 1.2 mph - N/A   Clear
10:20 AM 60.8 °F 41.0 °F 48% 30.21 in - Variable 2.3 mph - N/A   Clear
10:50 AM 64.4 °F 39.2 °F 40% 30.18 in 6.2 mi Variable 2.3 mph - N/A   Partly Cloudy
11:20 AM 68.0 °F 39.2 °F 35% 30.18 in 6.2 mi SE 1.2 mph - N/A   Partly Cloudy
11:50 AM 69.8 °F 39.2 °F 33% 30.18 in 6.2 mi Variable 2.3 mph - N/A   Partly Cloudy
12:20 PM 71.6 °F 39.2 °F 31% 30.15 in 6.2 mi SW 5.8 mph - N/A   Partly Cloudy
12:50 PM 71.6 °F 37.4 °F 29% 30.15 in 6.2 mi SSW 4.6 mph - N/A   Partly Cloudy
1:20 PM 73.4 °F 37.4 °F 27% 30.12 in 6.2 mi Variable 3.5 mph - N/A   Partly Cloudy
1:50 PM 73.4 °F 33.8 °F 23% 30.12 in - SSW 5.8 mph - N/A   Clear
2:20 PM 73.4 °F 33.8 °F 23% 30.09 in - WSW 5.8 mph - N/A   Clear
2:50 PM 75.2 °F 33.8 °F 22% 30.09 in - Variable 4.6 mph - N/A   Clear
3:00 PM 75 °F 35 °F 14% 30.03 in 12 mi WSW 4.6 mph - -   Clear
3:20 PM 75.2 °F 33.8 °F 22% 30.09 in - SW 8.1 mph - N/A   Clear
3:50 PM 75.2 °F 32.0 °F 21% 30.06 in - WSW 8.1 mph - N/A   Clear
4:20 PM 77.0 °F 33.8 °F 21% 30.06 in - Variable 5.8 mph - N/A   Clear
4:50 PM 77.0 °F 32.0 °F 19% 30.06 in - South 11.5 mph - N/A   Clear
5:20 PM 77.0 °F 33.8 °F 21% 30.04 in - SSW 6.9 mph - N/A   Clear
5:50 PM 75.2 °F 33.8 °F 22% 30.04 in - SSW 8.1 mph - N/A   Clear
6:20 PM 73.4 °F 35.6 °F 25% 30.04 in - SSW 4.6 mph - N/A   Clear
6:50 PM 71.6 °F 35.6 °F 27% 30.04 in - South 4.6 mph - N/A   Clear
7:20 PM 69.8 °F 33.8 °F 27% 30.04 in - SSE 5.8 mph - N/A   Clear
7:50 PM 68.0 °F 33.8 °F 28% 30.04 in - SSE 5.8 mph - N/A   Clear
8:20 PM 68.0 °F 33.8 °F 28% 30.04 in - SSE 4.6 mph - N/A   Clear
8:50 PM 66.2 °F 33.8 °F 30% 30.04 in - SSE 6.9 mph - N/A   Clear
9:00 PM 67 °F 33 °F 18% 29.96 in 12 mi SSE 6.9 mph - -  
9:20 PM 62.6 °F 33.8 °F 34% 30.04 in - South 4.6 mph - N/A   Clear
9:50 PM 60.8 °F 33.8 °F 36% 30.01 in - Variable 2.3 mph - N/A   Clear
10:20 PM 57.2 °F 32.0 °F 38% 30.01 in - NNE 4.6 mph - N/A   Clear
10:50 PM 57.2 °F 33.8 °F 41% 30.01 in - NE 6.9 mph - N/A   Clear
11:20 PM 55.4 °F 33.8 °F 44% 30.01 in - NE 9.2 mph - N/A   Clear
11:50 PM 55.4 °F 33.8 °F 44% 30.01 in - North 3.5 mph - N/A   Clear